| time (UTC) | temp F | wind direction | speed MPH | gust MPH | rain 1hr in | rain 24hr in | rain mn in | humidity % | barometer mb |
| 20260904163009 | 78 | 179 | 0.0 | 4.0 | 0.00 | 0.00 | 0.00 | 16 | 1003.2 |
| 20260904161504 | 76 | 228 | 0.0 | 3.0 | 0.00 | 0.00 | 0.00 | 18 | 1003.1 |
| 20260904160100 | 74 | 238 | 0.0 | 3.0 | 0.00 | 0.00 | 0.00 | 23 | 1003.1 |
| 20260904154556 | 69 | 217 | 0.0 | 0.0 | 0.00 | 0.00 | 0.00 | 32 | 1003.2 |
| 20260904153100 | 66 | 217 | 0.0 | 0.0 | 0.00 | 0.00 | 0.00 | 35 | 1003.4 |
| 20260904151547 | 64 | 206 | 0.0 | 0.0 | 0.00 | 0.00 | 0.00 | 36 | 1003.4 |
| 20260904150045 | 62 | 205 | 0.0 | 0.0 | 0.00 | 0.00 | 0.00 | 38 | 1003.5 |
| 20260904144538 | 60 | 212 | 0.0 | 0.0 | 0.00 | 0.00 | 0.00 | 39 | 1003.7 |
| 20260904143033 | 58 | 205 | 0.0 | 0.0 | 0.00 | 0.00 | 0.00 | 41 | 1003.8 |
| 20260904141528 | 56 | 219 | 0.0 | 0.0 | 0.00 | 0.00 | 0.00 | 43 | 1003.9 |
| 20260904140025 | 53 | 219 | 0.0 | 0.0 | 0.00 | 0.00 | 0.00 | 47 | 1004.0 |
| 20260904134523 | 51 | 173 | 0.0 | 0.0 | 0.00 | 0.00 | 0.00 | 48 | 1003.9 |
| 20260904133021 | 50 | 194 | 0.0 | 0.0 | 0.00 | 0.00 | 0.00 | 50 | 1003.9 |
| 20260904131519 | 50 | 197 | 0.0 | 0.0 | 0.00 | 0.00 | 0.00 | 49 | 1003.8 |
| 20260904130017 | 49 | 186 | 0.0 | 0.0 | 0.00 | 0.00 | 0.00 | 51 | 1003.6 |
| 20260904124515 | 48 | 205 | 0.0 | 1.0 | 0.00 | 0.00 | 0.00 | 52 | 1003.5 |
| 20260904123014 | 48 | 195 | 0.0 | 0.0 | 0.00 | 0.00 | 0.00 | 50 | 1003.3 |
| 20260904121518 | 48 | 211 | 0.0 | 0.0 | 0.00 | 0.00 | 0.00 | 52 | 1003.3 |
| 20260904120012 | 49 | 226 | 0.0 | 3.0 | 0.00 | 0.00 | 0.00 | 51 | 1003.1 |
| 20260904114515 | 49 | 214 | 0.0 | 1.0 | 0.00 | 0.00 | 0.00 | 49 | 1003.0 |
| 20260904113008 | 49 | 193 | 0.0 | 1.0 | 0.00 | 0.00 | 0.00 | 50 | 1003.1 |
| 20260904111506 | 49 | 212 | 0.0 | 0.0 | 0.00 | 0.00 | 0.00 | 49 | 1003.1 |
| 20260904110017 | 49 | 224 | 0.0 | 0.0 | 0.00 | 0.00 | 0.00 | 50 | 1003.0 |
| 20260904104504 | 50 | 209 | 0.0 | 1.0 | 0.00 | 0.00 | 0.00 | 48 | 1002.9 |
| 20260904103002 | 51 | 208 | 0.0 | 1.0 | 0.00 | 0.00 | 0.00 | 46 | 1002.8 |
| 20260904101502 | 51 | 163 | 0.0 | 1.0 | 0.00 | 0.00 | 0.00 | 47 | 1002.8 |
| 20260904100101 | 51 | 186 | 0.0 | 2.0 | 0.00 | 0.00 | 0.00 | 48 | 1002.7 |
| 20260904094559 | 50 | 202 | 0.0 | 2.0 | 0.00 | 0.00 | 0.00 | 48 | 1002.7 |
| 20260904093057 | 51 | 215 | 0.0 | 5.0 | 0.00 | 0.00 | 0.00 | 48 | 1002.5 |
| 20260904091557 | 51 | 193 | 0.0 | 2.0 | 0.00 | 0.00 | 0.00 | 49 | 1002.6 |
| 20260904090054 | 51 | 228 | 0.0 | 2.0 | 0.00 | 0.00 | 0.00 | 46 | 1002.5 |
| 20260904084557 | 52 | 233 | 0.0 | 4.0 | 0.00 | 0.00 | 0.00 | 46 | 1002.6 |
| 20260904083057 | 52 | 234 | 0.0 | 2.0 | 0.00 | 0.00 | 0.00 | 46 | 1002.6 |
| 20260904081551 | 52 | 208 | 0.0 | 2.0 | 0.00 | 0.00 | 0.00 | 46 | 1003.0 |
| 20260904080047 | 53 | 194 | 0.0 | 0.0 | 0.00 | 0.00 | 0.00 | 45 | 1003.0 |
| 20260904074554 | 53 | 213 | 0.0 | 2.0 | 0.00 | 0.00 | 0.00 | 46 | 1003.1 |
| 20260904073046 | 54 | 215 | 0.0 | 5.0 | 0.00 | 0.00 | 0.00 | 45 | 1003.4 |
| 20260904071541 | 54 | 221 | 0.0 | 0.0 | 0.00 | 0.00 | 0.00 | 44 | 1003.5 |
| 20260904070039 | 54 | 211 | 0.0 | 2.0 | 0.00 | 0.00 | 0.00 | 43 | 1003.3 |
| 20260904064539 | 55 | 211 | 0.0 | 1.0 | 0.00 | 0.00 | 0.00 | 43 | 1003.3 |
| 20260904063052 | 56 | 205 | 0.0 | 2.0 | 0.00 | 0.00 | 0.00 | 41 | 1003.3 |
| 20260904061537 | 56 | 209 | 0.0 | 3.0 | 0.00 | 0.00 | 0.00 | 42 | 1003.2 |
| 20260904060048 | 55 | 204 | 0.0 | 0.0 | 0.00 | 0.00 | 0.00 | 43 | 1003.4 |
| 20260904054530 | 55 | 207 | 0.0 | 2.0 | 0.00 | 0.00 | 0.00 | 45 | 1003.3 |
| 20260904053033 | 56 | 214 | 0.0 | 2.0 | 0.00 | 0.00 | 0.00 | 42 | 1003.3 |
| 20260904051530 | 57 | 214 | 0.0 | 2.0 | 0.00 | 0.00 | 0.00 | 41 | 1003.3 |
| 20260904050029 | 57 | 208 | 0.0 | 1.0 | 0.00 | 0.00 | 0.00 | 41 | 1003.2 |
| 20260904044540 | 58 | 213 | 0.0 | 2.0 | 0.00 | 0.00 | 0.00 | 40 | 1003.3 |
| 20260904043028 | 59 | 189 | 0.0 | 2.0 | 0.00 | 0.00 | 0.00 | 38 | 1003.3 |
| 20260904041530 | 60 | 188 | 0.0 | 0.0 | 0.00 | 0.00 | 0.00 | 38 | 1003.3 |
| 20260904040027 | 60 | 186 | 0.0 | 0.0 | 0.00 | 0.00 | 0.00 | 39 | 1003.3 |
| 20260904034526 | 60 | 214 | 0.0 | 2.0 | 0.00 | 0.00 | 0.00 | 40 | 1003.3 |
| 20260904033026 | 61 | 238 | 0.0 | 5.0 | 0.00 | 0.00 | 0.00 | 38 | 1003.1 |
| 20260904031526 | 62 | 166 | 0.0 | 0.0 | 0.00 | 0.00 | 0.00 | 34 | 1003.1 |
| 20260904030025 | 63 | 220 | 0.0 | 0.0 | 0.00 | 0.00 | 0.00 | 32 | 1002.9 |
| 20260904024525 | 63 | 162 | 0.0 | 0.0 | 0.00 | 0.00 | 0.00 | 29 | 1002.9 |
| 20260904023025 | 63 | 73 | 0.0 | 0.0 | 0.00 | 0.00 | 0.00 | 37 | 1002.3 |
| 20260904021526 | 65 | 5 | 0.0 | 0.0 | 0.00 | 0.00 | 0.00 | 43 | 1002.0 |
| 20260904020024 | 67 | 5 | 0.0 | 0.0 | 0.00 | 0.00 | 0.00 | 37 | 1001.8 |
| 20260904014525 | 69 | 5 | 0.0 | 0.0 | 0.00 | 0.00 | 0.00 | 29 | 1001.7 |
| 20260904013030 | 71 | 5 | 0.0 | 0.0 | 0.00 | 0.00 | 0.00 | 34 | 1001.5 |
| 20260904011533 | 75 | 250 | 0.0 | 0.0 | 0.00 | 0.00 | 0.00 | 23 | 1001.6 |
| 20260904010038 | 78 | 251 | 0.0 | 0.0 | 0.00 | 0.00 | 0.00 | 21 | 1001.6 |
| 20260904004520 | 78 | 254 | 0.0 | 0.0 | 0.00 | 0.00 | 0.00 | 19 | 1001.5 |
| 20260904003019 | 79 | 234 | 0.0 | 0.0 | 0.00 | 0.00 | 0.00 | 21 | 1001.4 |
| 20260904001520 | 79 | 231 | 0.0 | 1.0 | 0.00 | 0.00 | 0.00 | 19 | 1001.5 |
| 20260904000020 | 80 | 261 | 0.0 | 1.0 | 0.00 | 0.00 | 0.00 | 20 | 1001.5 |
| 20260903234517 | 80 | 209 | 0.0 | 0.0 | 0.00 | 0.00 | 0.00 | 17 | 1001.5 |
| 20260903233015 | 80 | 223 | 0.0 | 2.0 | 0.00 | 0.00 | 0.00 | 19 | 1001.7 |
| 20260903231516 | 79 | 239 | 0.0 | 4.0 | 0.00 | 0.00 | 0.00 | 17 | 1001.7 |
| 20260903230018 | 79 | 261 | 0.0 | 7.0 | 0.00 | 0.00 | 0.00 | 18 | 1001.9 |
| 20260903224522 | 79 | 211 | 0.0 | 2.0 | 0.00 | 0.00 | 0.00 | 18 | 1001.9 |
| 20260903223012 | 79 | 254 | 0.0 | 5.0 | 0.00 | 0.00 | 0.00 | 18 | 1002.1 |
| 20260903221512 | 79 | 237 | 0.0 | 5.0 | 0.00 | 0.00 | 0.00 | 18 | 1002.0 |
| 20260903220016 | 79 | 263 | 0.0 | 7.0 | 0.00 | 0.00 | 0.00 | 19 | 1002.2 |
| 20260903214507 | 79 | 152 | 0.0 | 2.0 | 0.00 | 0.00 | 0.00 | 17 | 1002.4 |
| 20260903213011 | 78 | 67 | 0.0 | 0.0 | 0.00 | 0.00 | 0.00 | 15 | 1002.4 |
| 20260903211506 | 77 | 107 | 0.0 | 1.0 | 0.00 | 0.00 | 0.00 | 16 | 1002.3 |
| 20260903210003 | 77 | 22 | 0.0 | 0.0 | 0.00 | 0.00 | 0.00 | 20 | 1002.3 |
| 20260903204504 | 77 | 12 | 0.0 | 0.0 | 0.00 | 0.00 | 0.00 | 17 | 1002.5 |
| 20260903203001 | 77 | 16 | 0.0 | 1.0 | 0.00 | 0.00 | 0.00 | 17 | 1002.6 |
| 20260903201601 | 77 | 99 | 0.0 | 4.0 | 0.00 | 0.00 | 0.00 | 15 | 1002.7 |
| 20260903200059 | 77 | 217 | 0.0 | 1.0 | 0.00 | 0.00 | 0.00 | 16 | 1002.7 |
| 20260903194558 | 77 | 195 | 0.0 | 2.0 | 0.00 | 0.00 | 0.00 | 17 | 1003.0 |
| 20260903193057 | 76 | 303 | 0.0 | 1.0 | 0.00 | 0.00 | 0.00 | 15 | 1002.9 |
| 20260903191556 | 76 | 165 | 0.0 | 1.0 | 0.00 | 0.00 | 0.00 | 20 | 1003.1 |
| 20260903190058 | 77 | 236 | 0.0 | 4.0 | 0.00 | 0.00 | 0.00 | 20 | 1003.3 |
| 20260903184601 | 76 | 205 | 0.0 | 3.0 | 0.00 | 0.00 | 0.00 | 20 | 1003.4 |
| 20260903183049 | 75 | 144 | 0.0 | 3.0 | 0.00 | 0.00 | 0.00 | 16 | 1003.7 |
| 20260903181547 | 75 | 183 | 0.0 | 0.0 | 0.00 | 0.00 | 0.00 | 17 | 1003.7 |
| 20260903180048 | 74 | 117 | 0.0 | 1.0 | 0.00 | 0.00 | 0.00 | 17 | 1003.7 |
| 20260903174558 | 74 | 212 | 0.0 | 0.0 | 0.00 | 0.00 | 0.00 | 18 | 1003.9 |
| 20260903173040 | 74 | 230 | 0.0 | 3.0 | 0.00 | 0.00 | 0.00 | 23 | 1004.1 |
| 20260903171535 | 73 | 204 | 0.0 | 3.0 | 0.00 | 0.00 | 0.00 | 19 | 1003.9 |
| 20260903170042 | 72 | 182 | 0.0 | 1.0 | 0.00 | 0.00 | 0.00 | 21 | 1003.9 |
| 20260903164528 | 70 | 76 | 0.0 | 1.0 | 0.00 | 0.00 | 0.00 | 22 | 1003.8 |